Location: Newark
(35.8582°N, 82.7116°W)
Time: 08:51:52
(UTC+00:00)

ISS - Visible Passes

Search period start: 16 September 2019 00:00
Search period end: 26 September 2019 00:00
Orbit: 411 x 421 km, 51.6° (Epoch: 16 September)

Date Brightness Start Highest point End Pass type
(mag) Time Alt. Az. Time Alt. Az. Time Alt. Az.
16 Sep -1.1 08:59:22 18° ESE 08:59:22 18° ESE 09:00:24 10° ESE visible
16 Sep -2.0 10:32:22 13° W 10:33:41 16° SW 10:35:49 10° SSW visible
17 Sep -1.6 09:47:25 16° S 09:47:25 16° S 09:48:21 10° SSE visible
18 Sep -3.1 00:46:17 10° SSW 00:49:14 33° SE 00:49:14 33° SE visible
18 Sep -2.1 23:58:41 10° S 00:00:59 18° SE 00:03:18 10° E visible
19 Sep -2.0 01:34:24 10° WSW 01:36:47 32° WNW 01:36:47 32° WNW visible
20 Sep -3.6 00:45:42 10° SW 00:48:59 69° NW 00:51:04 21° NE visible
20 Sep -3.7 23:57:16 10° SW 00:00:31 60° SE 00:03:48 10° NE visible
21 Sep -1.1 01:35:19 10° WNW 01:37:31 16° NNW 01:38:03 16° NNW visible
22 Sep -1.6 00:46:05 10° W 00:48:52 24° NNW 00:51:39 10° NNE visible
22 Sep -2.5 23:57:06 10° WSW 00:00:15 40° NW 00:03:25 10° NE visible
24 Sep -0.9 00:47:29 10° NW 00:48:54 12° NNW 00:50:21 10° N visible
24 Sep -1.1 23:57:51 10° WNW 00:00:09 17° NNW 00:02:28 10° NNE visible
